GLOBALSTAR M080

Last updated on Sat Sep 05 2026 00:03:16 GMT+0000 (Coordinated Universal Time)

1 38041U 11080B 26247.65154344 -.00000103 00000+0 50901-5 0 9993 2 38041 52.0053 137.1140 0001069 73.1551 302.1017 12.62258545678924
UTC large
Height (km)
Speed (km/s)
/
Latitude / Longitude
Inclination (degrees)
Orbital Period (minutes)
Azimuth
Elevation
Range (km)
Doppler Factor

Next 0 passes for location: London (51.5072 / 0.1276)

No passes found over London.
GLOBALSTAR M080